Year,Month,Day,Hour,Minute,Value (Times are PST for temperature in C)
2020,01,21,00,00,25.40
2020,01,21,00,01,25.50
2020,01,21,00,02,25.50
2020,01,21,00,03,25.50
2020,01,21,00,04,25.50
2020,01,21,00,05,25.50
2020,01,21,00,06,25.50
2020,01,21,00,07,25.40
2020,01,21,00,08,25.40
2020,01,21,00,09,25.40
2020,01,21,00,10,25.50
2020,01,21,00,11,25.50
2020,01,21,00,12,25.60
2020,01,21,00,13,25.60
2020,01,21,00,14,25.60
2020,01,21,00,15,25.60
2020,01,21,00,16,25.60
2020,01,21,00,17,25.60
2020,01,21,00,18,25.70
2020,01,21,00,19,25.70
2020,01,21,00,20,25.70
2020,01,21,00,21,25.70
2020,01,21,00,22,25.70
2020,01,21,00,23,25.70
2020,01,21,00,24,25.70
2020,01,21,00,25,25.70
2020,01,21,00,26,25.70
2020,01,21,00,27,25.70
2020,01,21,00,28,25.70
2020,01,21,00,29,25.70
2020,01,21,00,30,25.70
2020,01,21,00,31,25.60
2020,01,21,00,32,25.70
2020,01,21,00,33,25.60
2020,01,21,00,34,25.70
2020,01,21,00,35,25.70
2020,01,21,00,36,25.70
2020,01,21,00,37,25.70
2020,01,21,00,38,25.70
2020,01,21,00,39,25.70
2020,01,21,00,40,25.70
2020,01,21,00,41,25.60
2020,01,21,00,42,25.60
2020,01,21,00,43,25.60
2020,01,21,00,44,25.60
2020,01,21,00,45,25.60
2020,01,21,00,46,25.60
2020,01,21,00,47,25.60
2020,01,21,00,48,25.60
2020,01,21,00,49,25.60
2020,01,21,00,50,25.60
2020,01,21,00,51,25.60
2020,01,21,00,52,25.60
2020,01,21,00,53,25.70
2020,01,21,00,54,25.70
2020,01,21,00,55,25.70
2020,01,21,00,56,25.70
2020,01,21,00,57,25.70
2020,01,21,00,58,25.70
2020,01,21,00,59,25.70
2020,01,21,01,00,25.70
2020,01,21,01,01,25.70
2020,01,21,01,02,25.70
2020,01,21,01,03,25.70
2020,01,21,01,04,25.70
2020,01,21,01,05,25.70
2020,01,21,01,06,25.70
2020,01,21,01,07,25.70
2020,01,21,01,08,25.70
2020,01,21,01,09,25.70
2020,01,21,01,10,25.70
2020,01,21,01,11,25.60
2020,01,21,01,12,25.60
2020,01,21,01,13,25.60
2020,01,21,01,14,25.60
2020,01,21,01,15,25.60
2020,01,21,01,16,25.60
2020,01,21,01,17,25.60
2020,01,21,01,18,25.60
2020,01,21,01,19,25.60
2020,01,21,01,20,25.60
2020,01,21,01,21,25.60
2020,01,21,01,22,25.60
2020,01,21,01,23,25.60
2020,01,21,01,24,25.60
2020,01,21,01,25,25.60
2020,01,21,01,26,25.60
2020,01,21,01,27,25.60
2020,01,21,01,28,25.60
2020,01,21,01,29,25.60
2020,01,21,01,30,25.60
2020,01,21,01,31,25.60
2020,01,21,01,32,25.60
2020,01,21,01,33,25.60
2020,01,21,01,34,25.60
2020,01,21,01,35,25.60
2020,01,21,01,36,25.60
2020,01,21,01,37,25.60
2020,01,21,01,38,25.70
2020,01,21,01,39,25.70
2020,01,21,01,40,25.70
2020,01,21,01,41,25.70
2020,01,21,01,42,25.70
2020,01,21,01,43,25.80
2020,01,21,01,44,25.80
2020,01,21,01,45,25.80
2020,01,21,01,46,25.70
2020,01,21,01,47,25.70
2020,01,21,01,48,25.70
2020,01,21,01,49,25.70
2020,01,21,01,50,25.70
2020,01,21,01,51,25.70
2020,01,21,01,52,25.60
2020,01,21,01,53,25.60
2020,01,21,01,54,25.60
2020,01,21,01,55,25.60
2020,01,21,01,56,25.60
2020,01,21,01,57,25.60
2020,01,21,01,58,25.60
2020,01,21,01,59,25.60
2020,01,21,02,00,25.60
2020,01,21,02,01,25.60
2020,01,21,02,02,25.60
2020,01,21,02,03,25.60
2020,01,21,02,04,25.60
2020,01,21,02,05,25.60
2020,01,21,02,06,25.60
2020,01,21,02,07,25.60
2020,01,21,02,08,25.60
2020,01,21,02,09,25.60
2020,01,21,02,10,25.60
2020,01,21,02,11,25.60
2020,01,21,02,12,25.70
2020,01,21,02,13,25.70
2020,01,21,02,14,25.80
2020,01,21,02,15,25.80
2020,01,21,02,16,25.80
2020,01,21,02,17,25.70
2020,01,21,02,18,25.70
2020,01,21,02,19,25.60
2020,01,21,02,20,25.60
2020,01,21,02,21,25.60
2020,01,21,02,22,25.60
2020,01,21,02,23,25.60
2020,01,21,02,24,25.60
2020,01,21,02,25,25.60
2020,01,21,02,26,25.60
2020,01,21,02,27,25.60
2020,01,21,02,28,25.50
2020,01,21,02,29,25.50
2020,01,21,02,30,25.40
2020,01,21,02,31,25.40
2020,01,21,02,32,25.40
2020,01,21,02,33,25.40
2020,01,21,02,34,25.40
2020,01,21,02,35,25.40
2020,01,21,02,36,25.50
2020,01,21,02,37,25.60
2020,01,21,02,38,25.70
2020,01,21,02,39,25.70
2020,01,21,02,40,25.70
2020,01,21,02,41,25.70
2020,01,21,02,42,25.70
2020,01,21,02,43,25.70
2020,01,21,02,44,25.70
2020,01,21,02,45,25.60
2020,01,21,02,46,25.60
2020,01,21,02,47,25.50
2020,01,21,02,48,25.50
2020,01,21,02,49,25.50
2020,01,21,02,50,25.50
2020,01,21,02,51,25.50
2020,01,21,02,52,25.50
2020,01,21,02,53,25.50
2020,01,21,02,54,25.40
2020,01,21,02,55,25.40
2020,01,21,02,56,25.40
2020,01,21,02,57,25.40
2020,01,21,02,58,25.50
2020,01,21,02,59,25.50
2020,01,21,03,00,25.50
2020,01,21,03,01,25.60
2020,01,21,03,02,25.60
2020,01,21,03,03,25.60
2020,01,21,03,04,25.60
2020,01,21,03,05,25.50
2020,01,21,03,06,25.50
2020,01,21,03,07,25.50
2020,01,21,03,08,25.40
2020,01,21,03,09,25.40
2020,01,21,03,10,25.40
2020,01,21,03,11,25.40
2020,01,21,03,12,25.40
2020,01,21,03,13,25.40
2020,01,21,03,14,25.40
2020,01,21,03,15,25.40
2020,01,21,03,16,25.40
2020,01,21,03,17,25.40
2020,01,21,03,18,25.40
2020,01,21,03,19,25.40
2020,01,21,03,20,25.40
2020,01,21,03,21,25.50
2020,01,21,03,22,25.40
2020,01,21,03,23,25.40
2020,01,21,03,24,25.40
2020,01,21,03,25,25.40
2020,01,21,03,26,25.40
2020,01,21,03,27,25.40
2020,01,21,03,28,25.30
2020,01,21,03,29,25.30
2020,01,21,03,30,25.30
2020,01,21,03,31,25.30
2020,01,21,03,32,25.40
2020,01,21,03,33,25.40
2020,01,21,03,34,25.40
2020,01,21,03,35,25.50
2020,01,21,03,36,25.40
2020,01,21,03,37,25.40
2020,01,21,03,38,25.40
2020,01,21,03,39,25.40
2020,01,21,03,40,25.40
2020,01,21,03,41,25.30
2020,01,21,03,42,25.30
2020,01,21,03,43,25.30
2020,01,21,03,44,25.30
2020,01,21,03,45,25.30
2020,01,21,03,46,25.30
2020,01,21,03,47,25.30
2020,01,21,03,48,25.30
2020,01,21,03,49,25.30
2020,01,21,03,50,25.30
2020,01,21,03,51,25.20
2020,01,21,03,52,25.20
2020,01,21,03,53,25.20
2020,01,21,03,54,25.20
2020,01,21,03,55,25.20
2020,01,21,03,56,25.20
2020,01,21,03,57,25.20
2020,01,21,03,58,25.30
2020,01,21,03,59,25.30
2020,01,21,04,00,25.30
2020,01,21,04,01,25.30
2020,01,21,04,02,25.30
2020,01,21,04,03,25.30
2020,01,21,04,04,25.30
2020,01,21,04,05,25.40
2020,01,21,04,06,25.40
2020,01,21,04,07,25.30
2020,01,21,04,08,25.30
2020,01,21,04,09,25.30
2020,01,21,04,10,25.30
2020,01,21,04,11,25.40
2020,01,21,04,12,25.40
2020,01,21,04,13,25.40
2020,01,21,04,14,25.40
2020,01,21,04,15,25.40
2020,01,21,04,16,25.40
2020,01,21,04,17,25.40
2020,01,21,04,18,25.40
2020,01,21,04,19,25.40
2020,01,21,04,20,25.40
2020,01,21,04,21,25.40
2020,01,21,04,22,25.40
2020,01,21,04,23,25.40
2020,01,21,04,24,25.40
2020,01,21,04,25,25.40
2020,01,21,04,26,25.40
2020,01,21,04,27,25.30
2020,01,21,04,28,25.30
2020,01,21,04,29,25.30
2020,01,21,04,30,25.30
2020,01,21,04,31,25.20
2020,01,21,04,32,25.20
2020,01,21,04,33,25.30
2020,01,21,04,34,25.30
2020,01,21,04,35,25.30
2020,01,21,04,36,25.30
2020,01,21,04,37,25.30
2020,01,21,04,38,25.30
2020,01,21,04,39,25.40
2020,01,21,04,40,25.40
2020,01,21,04,41,25.40
2020,01,21,04,42,25.40
2020,01,21,04,43,25.40
2020,01,21,04,44,25.40
2020,01,21,04,45,25.40
2020,01,21,04,46,25.40
2020,01,21,04,47,25.40
2020,01,21,04,48,25.40
2020,01,21,04,49,25.40
2020,01,21,04,50,25.40
2020,01,21,04,51,25.40
2020,01,21,04,52,25.50
2020,01,21,04,53,25.40
2020,01,21,04,54,25.40
2020,01,21,04,55,25.40
2020,01,21,04,56,25.50
2020,01,21,04,57,25.50
2020,01,21,04,58,25.50
2020,01,21,04,59,25.50
2020,01,21,05,00,25.50
2020,01,21,05,01,25.50
2020,01,21,05,02,25.60
2020,01,21,05,03,25.60
2020,01,21,05,04,25.70
2020,01,21,05,05,25.70
2020,01,21,05,06,25.80
2020,01,21,05,07,26.00
2020,01,21,05,08,26.10
2020,01,21,05,09,26.20
2020,01,21,05,10,26.30
2020,01,21,05,11,26.30
2020,01,21,05,12,26.20
2020,01,21,05,13,25.90
2020,01,21,05,14,25.70
2020,01,21,05,15,25.50
2020,01,21,05,16,25.30
2020,01,21,05,17,25.10
2020,01,21,05,18,25.00
2020,01,21,05,19,24.90
2020,01,21,05,20,24.90
2020,01,21,05,21,24.80
2020,01,21,05,22,24.80
2020,01,21,05,23,24.80
2020,01,21,05,24,24.80
2020,01,21,05,25,24.80
2020,01,21,05,26,24.80
2020,01,21,05,27,24.80
2020,01,21,05,28,24.80
2020,01,21,05,29,24.80
2020,01,21,05,30,24.70
2020,01,21,05,31,24.70
2020,01,21,05,32,24.80
2020,01,21,05,33,24.80
2020,01,21,05,34,24.80
2020,01,21,05,35,24.80
2020,01,21,05,36,24.80
2020,01,21,05,37,24.80
2020,01,21,05,38,24.80
2020,01,21,05,39,24.80
2020,01,21,05,40,24.70
2020,01,21,05,41,24.70
2020,01,21,05,42,24.70
2020,01,21,05,43,24.70
2020,01,21,05,44,24.60
2020,01,21,05,45,24.60
2020,01,21,05,46,24.60
2020,01,21,05,47,24.50
2020,01,21,05,48,24.50
2020,01,21,05,49,24.50
2020,01,21,05,50,24.40
2020,01,21,05,51,24.40
2020,01,21,05,52,24.40
2020,01,21,05,53,24.40
2020,01,21,05,54,24.40
2020,01,21,05,55,24.30
2020,01,21,05,56,24.30
2020,01,21,05,57,24.30
2020,01,21,05,58,24.30
2020,01,21,05,59,24.30
2020,01,21,06,00,24.20
2020,01,21,06,01,24.20
2020,01,21,06,02,24.20
2020,01,21,06,03,24.20
2020,01,21,06,04,24.20
2020,01,21,06,05,24.20
2020,01,21,06,06,24.10
2020,01,21,06,07,24.10
2020,01,21,06,08,24.10
2020,01,21,06,09,24.10
2020,01,21,06,10,24.10
2020,01,21,06,11,24.00
2020,01,21,06,12,24.00
2020,01,21,06,13,24.00
2020,01,21,06,14,24.00
2020,01,21,06,15,24.00
2020,01,21,06,16,23.90
2020,01,21,06,17,23.90
2020,01,21,06,18,23.90
2020,01,21,06,19,23.90
2020,01,21,06,20,23.90
2020,01,21,06,21,23.90
2020,01,21,06,22,23.90
2020,01,21,06,23,23.90
2020,01,21,06,24,23.90
2020,01,21,06,25,23.90
2020,01,21,06,26,23.90
2020,01,21,06,27,23.80
2020,01,21,06,28,23.80
2020,01,21,06,29,23.80
2020,01,21,06,30,23.80
2020,01,21,06,31,23.80
2020,01,21,06,32,23.80
2020,01,21,06,33,23.80
2020,01,21,06,34,23.80
2020,01,21,06,35,23.80
2020,01,21,06,36,23.80
2020,01,21,06,37,23.80
2020,01,21,06,38,23.80
2020,01,21,06,39,23.80
2020,01,21,06,40,23.80
2020,01,21,06,41,23.70
2020,01,21,06,42,23.70
2020,01,21,06,43,23.70
2020,01,21,06,44,23.70
2020,01,21,06,45,23.70
2020,01,21,06,46,23.70
2020,01,21,06,47,23.70
2020,01,21,06,48,23.60
2020,01,21,06,49,23.60
2020,01,21,06,50,23.60
2020,01,21,06,51,23.60
2020,01,21,06,52,23.60
2020,01,21,06,53,23.60
2020,01,21,06,54,23.50
2020,01,21,06,55,23.50
2020,01,21,06,56,23.50
2020,01,21,06,57,23.50
2020,01,21,06,58,23.40
2020,01,21,06,59,23.40
2020,01,21,07,00,23.40
2020,01,21,07,01,23.40
2020,01,21,07,02,23.40
2020,01,21,07,03,23.40
2020,01,21,07,04,23.40
2020,01,21,07,05,23.40
2020,01,21,07,06,23.30
2020,01,21,07,07,23.30
2020,01,21,07,08,23.30
2020,01,21,07,09,23.30
2020,01,21,07,10,23.30
2020,01,21,07,11,23.20
2020,01,21,07,12,23.20
2020,01,21,07,13,23.20
2020,01,21,07,14,23.20
2020,01,21,07,15,23.20
2020,01,21,07,16,23.30
2020,01,21,07,17,23.20
2020,01,21,07,18,23.20
2020,01,21,07,19,23.20
2020,01,21,07,20,23.20
2020,01,21,07,21,23.20
2020,01,21,07,22,23.20
2020,01,21,07,23,23.20
2020,01,21,07,24,23.20
2020,01,21,07,25,23.20
2020,01,21,07,26,23.20
2020,01,21,07,27,23.20
2020,01,21,07,28,23.20
2020,01,21,07,29,23.20
2020,01,21,07,30,23.20
2020,01,21,07,31,23.20
2020,01,21,07,32,23.20
2020,01,21,07,33,23.20
2020,01,21,07,34,23.20
2020,01,21,07,35,23.20
2020,01,21,07,36,23.20
2020,01,21,07,37,23.20
2020,01,21,07,38,23.20
2020,01,21,07,39,23.20
2020,01,21,07,40,23.20
2020,01,21,07,41,23.20
2020,01,21,07,42,23.20
2020,01,21,07,43,23.20
2020,01,21,07,44,23.20
2020,01,21,07,45,23.20
2020,01,21,07,46,23.20
2020,01,21,07,47,23.20
2020,01,21,07,48,23.20
2020,01,21,07,49,23.20
2020,01,21,07,50,23.20
2020,01,21,07,51,23.20
2020,01,21,07,52,23.20
2020,01,21,07,53,23.20
2020,01,21,07,54,23.20
2020,01,21,07,55,23.20
2020,01,21,07,56,23.20
2020,01,21,07,57,23.20
2020,01,21,07,58,23.20
2020,01,21,07,59,23.20
2020,01,21,08,00,23.20
2020,01,21,08,01,23.20
2020,01,21,08,02,23.20
2020,01,21,08,03,23.20
2020,01,21,08,04,23.20
2020,01,21,08,05,23.20
2020,01,21,08,06,23.20
2020,01,21,08,07,23.20
2020,01,21,08,08,23.30
2020,01,21,08,09,23.30
2020,01,21,08,10,23.30
2020,01,21,08,11,23.30
2020,01,21,08,12,23.30
2020,01,21,08,13,23.30
2020,01,21,08,14,23.30
2020,01,21,08,15,23.30
2020,01,21,08,16,23.30
2020,01,21,08,17,23.30
2020,01,21,08,18,23.40
2020,01,21,08,19,23.40
2020,01,21,08,20,23.40
2020,01,21,08,21,23.40
2020,01,21,08,22,23.40
2020,01,21,08,23,23.40
2020,01,21,08,24,23.40
2020,01,21,08,25,23.30
2020,01,21,08,26,23.30
2020,01,21,08,27,23.30
2020,01,21,08,28,23.30
2020,01,21,08,29,23.30
2020,01,21,08,30,23.30
2020,01,21,08,31,23.30
2020,01,21,08,32,23.30
2020,01,21,08,33,23.30
2020,01,21,08,34,23.30
2020,01,21,08,35,23.30
2020,01,21,08,36,23.30
2020,01,21,08,37,23.30
2020,01,21,08,38,23.30
2020,01,21,08,39,23.30
2020,01,21,08,40,23.30
2020,01,21,08,41,23.30
2020,01,21,08,42,23.30
2020,01,21,08,43,23.30
2020,01,21,08,44,23.30
2020,01,21,08,45,23.30
2020,01,21,08,46,23.30
2020,01,21,08,47,23.30
2020,01,21,08,48,23.30
2020,01,21,08,49,23.20
2020,01,21,08,50,23.20
2020,01,21,08,51,23.20
2020,01,21,08,52,23.20
2020,01,21,08,53,23.20
2020,01,21,08,54,23.20
2020,01,21,08,55,23.20
2020,01,21,08,56,23.20
2020,01,21,08,57,23.20
2020,01,21,08,58,23.20
2020,01,21,08,59,23.20
2020,01,21,09,00,23.10
2020,01,21,09,01,23.10
2020,01,21,09,02,23.10
2020,01,21,09,03,23.10
2020,01,21,09,04,23.10
2020,01,21,09,05,23.10
2020,01,21,09,06,23.10
2020,01,21,09,07,23.10
2020,01,21,09,08,23.10
2020,01,21,09,09,23.10
2020,01,21,09,10,23.10
2020,01,21,09,11,23.10
2020,01,21,09,12,23.10
2020,01,21,09,13,23.10
2020,01,21,09,14,23.10
2020,01,21,09,15,23.10
2020,01,21,09,16,23.10
2020,01,21,09,17,23.10
2020,01,21,09,18,23.10
2020,01,21,09,19,23.10
2020,01,21,09,20,23.10
2020,01,21,09,21,23.10
2020,01,21,09,22,23.10
2020,01,21,09,23,23.10
2020,01,21,09,24,23.00
2020,01,21,09,25,23.00
2020,01,21,09,26,23.00
2020,01,21,09,27,22.90
2020,01,21,09,28,22.90
2020,01,21,09,29,22.90
2020,01,21,09,30,22.90
2020,01,21,09,31,22.90
2020,01,21,09,32,22.90
2020,01,21,09,33,22.80
2020,01,21,09,34,22.80
2020,01,21,09,35,22.80
2020,01,21,09,36,22.80
2020,01,21,09,37,22.80
2020,01,21,09,38,22.80
2020,01,21,09,39,22.80
2020,01,21,09,40,22.80
2020,01,21,09,41,22.80
2020,01,21,09,42,22.90
2020,01,21,09,43,22.90
2020,01,21,09,44,22.90
2020,01,21,09,45,22.90
2020,01,21,09,46,22.90
2020,01,21,09,47,22.90
2020,01,21,09,48,22.90
2020,01,21,09,49,22.90
2020,01,21,09,50,22.90
2020,01,21,09,51,22.90
2020,01,21,09,52,22.90
2020,01,21,09,53,22.90
2020,01,21,09,54,22.90
2020,01,21,09,55,22.90
2020,01,21,09,56,22.90
2020,01,21,09,57,23.00
2020,01,21,09,58,23.00
2020,01,21,09,59,23.00
2020,01,21,10,00,23.00
2020,01,21,10,01,23.00
2020,01,21,10,02,23.00
2020,01,21,10,03,23.00
2020,01,21,10,04,23.00
2020,01,21,10,05,23.00
2020,01,21,10,06,23.00
2020,01,21,10,07,23.00
2020,01,21,10,08,23.00
2020,01,21,10,09,22.90
2020,01,21,10,10,23.00
2020,01,21,10,11,22.90
2020,01,21,10,12,22.90
2020,01,21,10,13,22.90
2020,01,21,10,14,23.00
2020,01,21,10,15,23.00
2020,01,21,10,16,23.00
2020,01,21,10,17,23.00
2020,01,21,10,18,23.00
2020,01,21,10,19,23.10
2020,01,21,10,20,23.10
2020,01,21,10,21,23.10
2020,01,21,10,22,23.10
2020,01,21,10,23,23.10
2020,01,21,10,24,23.10
2020,01,21,10,25,23.10
2020,01,21,10,26,23.10
2020,01,21,10,27,23.10
2020,01,21,10,28,23.20
2020,01,21,10,29,23.20
2020,01,21,10,30,23.20
2020,01,21,10,31,23.20
2020,01,21,10,32,23.20
2020,01,21,10,33,23.20
2020,01,21,10,34,23.20
2020,01,21,10,35,23.10
2020,01,21,10,36,23.10
2020,01,21,10,37,23.10
2020,01,21,10,38,23.10
2020,01,21,10,39,23.10
2020,01,21,10,40,23.10
2020,01,21,10,41,23.10
2020,01,21,10,42,23.10
2020,01,21,10,43,23.10
2020,01,21,10,44,23.10
2020,01,21,10,45,23.10
2020,01,21,10,46,23.10
2020,01,21,10,47,23.10
2020,01,21,10,48,23.10
2020,01,21,10,49,23.10
2020,01,21,10,50,23.20
2020,01,21,10,51,23.20
2020,01,21,10,52,23.20
2020,01,21,10,53,23.20
2020,01,21,10,54,23.20
2020,01,21,10,55,23.20
2020,01,21,10,56,23.20
2020,01,21,10,57,23.20
2020,01,21,10,58,23.20
2020,01,21,10,59,23.20
2020,01,21,11,00,23.20
2020,01,21,11,01,23.20
2020,01,21,11,02,23.20
2020,01,21,11,03,23.20
2020,01,21,11,04,23.20
2020,01,21,11,05,23.10
2020,01,21,11,06,23.10
2020,01,21,11,07,23.10
2020,01,21,11,08,23.10
2020,01,21,11,09,23.10
2020,01,21,11,10,23.10
2020,01,21,11,11,23.10
2020,01,21,11,12,23.10
2020,01,21,11,13,23.10
2020,01,21,11,14,23.10
2020,01,21,11,15,23.20
2020,01,21,11,16,23.20
2020,01,21,11,17,23.30
2020,01,21,11,18,23.30
2020,01,21,11,19,23.30
2020,01,21,11,20,23.30
2020,01,21,11,21,23.30
2020,01,21,11,22,23.30
2020,01,21,11,23,23.30
2020,01,21,11,24,23.30
2020,01,21,11,25,23.30
2020,01,21,11,26,23.30
2020,01,21,11,27,23.40
2020,01,21,11,28,23.40
2020,01,21,11,29,23.40
2020,01,21,11,30,23.50
2020,01,21,11,31,23.50
2020,01,21,11,32,23.60
2020,01,21,11,33,23.60
2020,01,21,11,34,23.70
2020,01,21,11,35,23.70
2020,01,21,11,36,23.70
2020,01,21,11,37,23.70
2020,01,21,11,38,23.70
2020,01,21,11,39,23.70
2020,01,21,11,40,23.70
2020,01,21,11,41,23.70
2020,01,21,11,42,23.70
2020,01,21,11,43,23.70
2020,01,21,11,44,23.70
2020,01,21,11,45,23.80
2020,01,21,11,46,23.80
2020,01,21,11,47,23.80
2020,01,21,11,48,23.90
2020,01,21,11,49,23.90
2020,01,21,11,50,24.00
2020,01,21,11,51,24.10
2020,01,21,11,52,24.20
2020,01,21,11,53,24.30
2020,01,21,11,54,24.40
2020,01,21,11,55,24.40
2020,01,21,11,56,24.50
2020,01,21,11,57,24.50
2020,01,21,11,58,24.70
2020,01,21,11,59,24.80
2020,01,21,12,00,24.90
2020,01,21,12,01,24.90
2020,01,21,12,02,24.90
2020,01,21,12,03,24.90
2020,01,21,12,04,25.00
2020,01,21,12,05,25.00
2020,01,21,12,06,25.00
2020,01,21,12,07,25.00
2020,01,21,12,08,25.00
2020,01,21,12,09,25.00
2020,01,21,12,10,25.10
2020,01,21,12,11,25.10
2020,01,21,12,12,25.10
2020,01,21,12,13,25.10
2020,01,21,12,14,25.10
2020,01,21,12,15,25.10
2020,01,21,12,16,25.10
2020,01,21,12,17,25.10
2020,01,21,12,18,25.10
2020,01,21,12,19,25.00
2020,01,21,12,20,25.00
2020,01,21,12,21,25.00
2020,01,21,12,22,25.00
2020,01,21,12,23,25.00
2020,01,21,12,24,25.00
2020,01,21,12,25,25.00
2020,01,21,12,26,24.90
2020,01,21,12,27,24.90
2020,01,21,12,28,24.90
2020,01,21,12,29,24.90
2020,01,21,12,30,24.90
2020,01,21,12,31,24.90
2020,01,21,12,32,24.90
2020,01,21,12,33,24.90
2020,01,21,12,34,24.90
2020,01,21,12,35,25.00
2020,01,21,12,36,25.00
2020,01,21,12,37,25.10
2020,01,21,12,38,25.10
2020,01,21,12,39,25.10
2020,01,21,12,40,25.10
2020,01,21,12,41,25.10
2020,01,21,12,42,25.10
2020,01,21,12,43,25.10
2020,01,21,12,44,25.00
2020,01,21,12,45,25.00
2020,01,21,12,46,24.90
2020,01,21,12,47,24.90
2020,01,21,12,48,24.90
2020,01,21,12,49,24.90
2020,01,21,12,50,24.90
2020,01,21,12,51,24.90
2020,01,21,12,52,24.90
2020,01,21,12,53,24.90
2020,01,21,12,54,24.90
2020,01,21,12,55,24.90
2020,01,21,12,56,24.90
2020,01,21,12,57,24.90
2020,01,21,12,58,24.90
2020,01,21,12,59,24.90
2020,01,21,13,00,24.90
2020,01,21,13,01,24.90
2020,01,21,13,02,24.90
2020,01,21,13,03,24.90
2020,01,21,13,04,24.90
2020,01,21,13,05,24.90
2020,01,21,13,06,25.00
2020,01,21,13,07,25.10
2020,01,21,13,08,25.30
2020,01,21,13,09,25.40
2020,01,21,13,10,25.40
2020,01,21,13,11,25.40
2020,01,21,13,12,25.50
2020,01,21,13,13,25.50
2020,01,21,13,14,25.60
2020,01,21,13,15,25.60
2020,01,21,13,16,25.60
2020,01,21,13,17,25.60
2020,01,21,13,18,25.70
2020,01,21,13,19,25.70
2020,01,21,13,20,25.70
2020,01,21,13,21,25.70
2020,01,21,13,22,25.70
2020,01,21,13,23,25.80
2020,01,21,13,24,25.80
2020,01,21,13,25,25.80
2020,01,21,13,26,25.80
2020,01,21,13,27,25.80
2020,01,21,13,28,25.80
2020,01,21,13,29,25.80
2020,01,21,13,30,25.70
2020,01,21,13,31,25.70
2020,01,21,13,32,25.70
2020,01,21,13,33,25.70
2020,01,21,13,34,25.70
2020,01,21,13,35,25.70
2020,01,21,13,36,25.70
2020,01,21,13,37,25.70
2020,01,21,13,38,25.70
2020,01,21,13,39,25.70
2020,01,21,13,40,25.70
2020,01,21,13,41,25.70
2020,01,21,13,42,25.70
2020,01,21,13,43,25.70
2020,01,21,13,44,25.70
2020,01,21,13,45,25.70
2020,01,21,13,46,25.70
2020,01,21,13,47,25.70
2020,01,21,13,48,25.70
2020,01,21,13,49,25.70
2020,01,21,13,50,25.60
2020,01,21,13,51,25.60
2020,01,21,13,52,25.60
2020,01,21,13,53,25.60
2020,01,21,13,54,25.60
2020,01,21,13,55,25.60
2020,01,21,13,56,25.60
2020,01,21,13,57,25.60
2020,01,21,13,58,25.60
2020,01,21,13,59,25.70
2020,01,21,14,00,25.70
2020,01,21,14,01,25.70
2020,01,21,14,02,25.70
2020,01,21,14,03,25.70
2020,01,21,14,04,25.70
2020,01,21,14,05,25.70
2020,01,21,14,06,25.70
2020,01,21,14,07,25.70
2020,01,21,14,08,25.70
2020,01,21,14,09,25.70
2020,01,21,14,10,25.70
2020,01,21,14,11,25.70
2020,01,21,14,12,25.70
2020,01,21,14,13,25.70
2020,01,21,14,14,25.60
2020,01,21,14,15,25.60
2020,01,21,14,16,25.60
2020,01,21,14,17,25.50
2020,01,21,14,18,25.50
2020,01,21,14,19,25.50
2020,01,21,14,20,25.50
2020,01,21,14,21,25.40
2020,01,21,14,22,25.40
2020,01,21,14,23,25.40
2020,01,21,14,24,25.40
2020,01,21,14,25,25.40
2020,01,21,14,26,25.40
2020,01,21,14,27,25.40
2020,01,21,14,28,25.40
2020,01,21,14,29,25.30
2020,01,21,14,30,25.30
2020,01,21,14,31,25.30
2020,01,21,14,32,25.30
2020,01,21,14,33,25.30
2020,01,21,14,34,25.30
2020,01,21,14,35,25.30
2020,01,21,14,36,25.30
2020,01,21,14,37,25.30
2020,01,21,14,38,25.20
2020,01,21,14,39,25.20
2020,01,21,14,40,25.20
2020,01,21,14,41,25.20
2020,01,21,14,42,25.20
2020,01,21,14,43,25.20
2020,01,21,14,44,25.20
2020,01,21,14,45,25.20
2020,01,21,14,46,25.20
2020,01,21,14,47,25.20
2020,01,21,14,48,25.20
2020,01,21,14,49,25.20
2020,01,21,14,50,25.20
2020,01,21,14,51,25.20
2020,01,21,14,52,25.20
2020,01,21,14,53,25.10
2020,01,21,14,54,25.10
2020,01,21,14,55,25.10
2020,01,21,14,56,25.00
2020,01,21,14,57,25.00
2020,01,21,14,58,25.00
2020,01,21,14,59,24.90
2020,01,21,15,00,24.90
2020,01,21,15,01,24.90
2020,01,21,15,02,24.90
2020,01,21,15,03,24.80
2020,01,21,15,04,24.80
2020,01,21,15,05,24.80
2020,01,21,15,06,24.80
2020,01,21,15,07,24.80
2020,01,21,15,08,24.80
2020,01,21,15,09,24.90
2020,01,21,15,10,24.80
2020,01,21,15,11,24.90
2020,01,21,15,12,24.90
2020,01,21,15,13,24.90
2020,01,21,15,14,24.90
2020,01,21,15,15,24.90
2020,01,21,15,16,24.80
2020,01,21,15,17,24.90
2020,01,21,15,18,24.90
2020,01,21,15,19,24.90
2020,01,21,15,20,24.90
2020,01,21,15,21,24.90
2020,01,21,15,22,24.90
2020,01,21,15,23,24.90
2020,01,21,15,24,24.90
2020,01,21,15,25,24.90
2020,01,21,15,26,24.90
2020,01,21,15,27,24.90
2020,01,21,15,28,24.90
2020,01,21,15,29,24.90
2020,01,21,15,30,24.90
2020,01,21,15,31,24.90
2020,01,21,15,32,24.90
2020,01,21,15,33,24.90
2020,01,21,15,34,24.90
2020,01,21,15,35,24.90
2020,01,21,15,36,24.90
2020,01,21,15,37,25.00
2020,01,21,15,38,25.00
2020,01,21,15,39,25.00
2020,01,21,15,40,25.00
2020,01,21,15,41,25.00
2020,01,21,15,42,25.00
2020,01,21,15,43,25.00
2020,01,21,15,44,25.00
2020,01,21,15,45,25.00
2020,01,21,15,46,25.00
2020,01,21,15,47,25.00
2020,01,21,15,48,25.00
2020,01,21,15,49,25.00
2020,01,21,15,50,25.00
2020,01,21,15,51,25.00
2020,01,21,15,52,25.00
2020,01,21,15,53,25.00
2020,01,21,15,54,25.00
2020,01,21,15,55,25.00
2020,01,21,15,56,25.00
2020,01,21,15,57,24.90
2020,01,21,15,58,24.90
2020,01,21,15,59,24.90
2020,01,21,16,00,24.80
2020,01,21,16,01,24.80
2020,01,21,16,02,24.80
2020,01,21,16,03,24.80
2020,01,21,16,04,24.80
2020,01,21,16,05,24.80
2020,01,21,16,06,24.80
2020,01,21,16,07,24.80
2020,01,21,16,08,24.80
2020,01,21,16,09,24.70
2020,01,21,16,10,24.70
2020,01,21,16,11,24.70
2020,01,21,16,12,24.70
2020,01,21,16,13,24.70
2020,01,21,16,14,24.70
2020,01,21,16,15,24.70
2020,01,21,16,16,24.70
2020,01,21,16,17,24.70
2020,01,21,16,18,24.70
2020,01,21,16,19,24.70
2020,01,21,16,20,24.70
2020,01,21,16,21,24.70
2020,01,21,16,22,24.70
2020,01,21,16,23,24.70
2020,01,21,16,24,24.70
2020,01,21,16,25,24.70
2020,01,21,16,26,24.70
2020,01,21,16,27,24.70
2020,01,21,16,28,24.70
2020,01,21,16,29,24.70
2020,01,21,16,30,24.70
2020,01,21,16,31,24.70
2020,01,21,16,32,24.70
2020,01,21,16,33,24.70
2020,01,21,16,34,24.70
2020,01,21,16,35,24.70
2020,01,21,16,36,24.70
2020,01,21,16,37,24.70
2020,01,21,16,38,24.70
2020,01,21,16,39,24.70
2020,01,21,16,40,24.70
2020,01,21,16,41,24.70
2020,01,21,16,42,24.70
2020,01,21,16,43,24.60
2020,01,21,16,44,24.60
2020,01,21,16,45,24.60
2020,01,21,16,46,24.60
2020,01,21,16,47,24.60
2020,01,21,16,48,24.60
2020,01,21,16,49,24.50
2020,01,21,16,50,24.50
2020,01,21,16,51,24.50
2020,01,21,16,52,24.40
2020,01,21,16,53,24.40
2020,01,21,16,54,24.40
2020,01,21,16,55,24.40
2020,01,21,16,56,24.40
2020,01,21,16,57,24.40
2020,01,21,16,58,24.40
2020,01,21,16,59,24.40
2020,01,21,17,00,24.40
2020,01,21,17,01,24.40
2020,01,21,17,02,24.40
2020,01,21,17,03,24.40
2020,01,21,17,04,24.40
2020,01,21,17,05,24.40
2020,01,21,17,06,24.40
2020,01,21,17,07,24.40
2020,01,21,17,08,24.40
2020,01,21,17,09,24.40
2020,01,21,17,10,24.40
2020,01,21,17,11,24.40
2020,01,21,17,12,24.40
2020,01,21,17,13,24.40
2020,01,21,17,14,24.40
2020,01,21,17,15,24.40
2020,01,21,17,16,24.30
2020,01,21,17,17,24.30
2020,01,21,17,18,24.30
2020,01,21,17,19,24.30